When you browse on this site, cookies collect data to enhance your experience and personalize the content and advertising you see.
Visit our Privacy Policy to learn more. By continuing to use the site, you agree to this use of cookies and data.
  • In Deutschland
  • Länderverzeichnis
  • Für 7 Tage
  • Wassertemperatur
  • Satellitenkarten
  • Wetterkarte
  • Widgets
  • user-avatar
    Anmelden

    Stündliche Wetter Lysobyki

    Heute, 23 Juli, Dienstag

    Zeit Temperatur Niederschläge Wind Luftdruck Luftfeuchtigkeit
    00:00 +18°C° 0 mm 1 m/S 755 mmHg 77%
    01:00 +16°C° 0 mm 1 m/S 755 mmHg 79%
    02:00 +16°C° 0 mm 1 m/S 755 mmHg 78%
    03:00 +15°C° 0 mm 1 m/S 755 mmHg 76%
    04:00 +15°C° 0 mm 1 m/S 755 mmHg 75%
    05:00 +16°C° 0 mm 1 m/S 755 mmHg 73%
    06:00 +18°C° 0 mm 1 m/S 755 mmHg 70%
    07:00 +18°C° 0 mm 2 m/S 755 mmHg 67%
    08:00 +18°C° 0 mm 2 m/S 755 mmHg 69%
    09:00 +18°C° 0 mm 2 m/S 755 mmHg 71%
    10:00 +18°C° 0 mm 3 m/S 755 mmHg 73%
    11:00 +19°C° 0 mm 3 m/S 755 mmHg 70%
    12:00 +19°C° 0 mm 3 m/S 755 mmHg 68%
    13:00 +20°C° 0 mm 4 m/S 754 mmHg 66%
    14:00 +21°C° 0 mm 4 m/S 754 mmHg 66%
    15:00 +21°C° 0 mm 4 m/S 754 mmHg 66%
    16:00 +21°C° 0 mm 4 m/S 754 mmHg 66%
    17:00 +20°C° 0 mm 3 m/S 754 mmHg 70%
    18:00 +20°C° 0 mm 3 m/S 754 mmHg 75%
    19:00 +19°C° 0 mm 2 m/S 754 mmHg 80%
    20:00 +18°C° 0 mm 2 m/S 754 mmHg 84%
    21:00 +17°C° 0 mm 2 m/S 754 mmHg 88%
    22:00 +16°C° 0 mm 2 m/S 754 mmHg 92%
    23:00 +16°C° 0 mm 2 m/S 754 mmHg 92%

    Morgen, 24 Juli, Mittwoch

    Zeit Temperatur Niederschläge Wind Luftdruck Luftfeuchtigkeit
    00:00 +15°C° 0 mm 1 m/S 754 mmHg 93%
    01:00 +15°C° 0 mm 1 m/S 754 mmHg 93%
    02:00 +15°C° 0 mm 1 m/S 754 mmHg 93%
    03:00 +15°C° 0 mm 1 m/S 754 mmHg 93%
    04:00 +15°C° 0 mm 1 m/S 754 mmHg 93%
    05:00 +16°C° 0 mm 1 m/S 754 mmHg 88%
    06:00 +18°C° 0 mm 1 m/S 754 mmHg 83%
    07:00 +20°C° 0 mm 1 m/S 754 mmHg 78%
    08:00 +21°C° 0 mm 1 m/S 754 mmHg 72%
    09:00 +23°C° 0 mm 1 m/S 754 mmHg 66%
    10:00 +24°C° 0 mm 1 m/S 754 mmHg 60%
    11:00 +25°C° 0 mm 2 m/S 754 mmHg 58%
    12:00 +25°C° 0 mm 2 m/S 754 mmHg 56%
    13:00 +26°C° 0 mm 2 m/S 754 mmHg 53%
    14:00 +26°C° 0 mm 2 m/S 754 mmHg 52%
    15:00 +26°C° 0 mm 2 m/S 754 mmHg 51%
    16:00 +27°C° 0 mm 3 m/S 754 mmHg 49%
    17:00 +25°C° 0 mm 2 m/S 754 mmHg 55%
    18:00 +24°C° 0 mm 2 m/S 754 mmHg 60%
    19:00 +23°C° 0 mm 1 m/S 754 mmHg 66%
    20:00 +22°C° 0 mm 1 m/S 754 mmHg 71%
    21:00 +21°C° 0 mm 1 m/S 754 mmHg 76%
    22:00 +19°C° 0 mm 1 m/S 754 mmHg 81%
    23:00 +19°C° 0 mm 1 m/S 754 mmHg 84%

    übermorgen, 25 Juli, Donnerstag

    Zeit Temperatur Niederschläge Wind Luftdruck Luftfeuchtigkeit
    00:00 +19°C° 0 mm 1 m/S 755 mmHg 87%
    01:00 +18°C° 0 mm 1 m/S 755 mmHg 90%
    02:00 +18°C° 0 mm 1 m/S 755 mmHg 91%
    03:00 +18°C° 0 mm 1 m/S 755 mmHg 92%
    04:00 +16°C° 0 mm 1 m/S 755 mmHg 92%
    05:00 +19°C° 0 mm 1 m/S 755 mmHg 86%
    06:00 +21°C° 0 mm 1 m/S 755 mmHg 80%
    07:00 +22°C° 0 mm 1 m/S 755 mmHg 74%
    08:00 +24°C° 0 mm 1 m/S 755 mmHg 68%
    09:00 +25°C° 0 mm 2 m/S 755 mmHg 63%
    10:00 +26°C° 0 mm 2 m/S 755 mmHg 57%
    11:00 +27°C° 0 mm 2 m/S 754 mmHg 53%
    12:00 +27°C° 0 mm 2 m/S 754 mmHg 50%
    13:00 +28°C° 0 mm 3 m/S 754 mmHg 47%
    14:00 +28°C° 0 mm 3 m/S 753 mmHg 46%
    15:00 +28°C° 0 mm 3 m/S 753 mmHg 45%
    16:00 +28°C° 0 mm 4 m/S 753 mmHg 44%
    17:00 +26°C° 0 mm 3 m/S 753 mmHg 52%
    18:00 +25°C° 0 mm 3 m/S 753 mmHg 60%
    19:00 +22°C° 0 mm 3 m/S 753 mmHg 68%
    20:00 +21°C° 0 mm 3 m/S 753 mmHg 72%
    21:00 +19°C° 0 mm 3 m/S 753 mmHg 76%
    22:00 +18°C° 0 mm 3 m/S 753 mmHg 80%
    23:00 +17°C° 0 mm 3 m/S 753 mmHg 84%

    26 Juli, Freitag

    Zeit Temperatur Niederschläge Wind Luftdruck Luftfeuchtigkeit
    00:00 +16°C° 0 mm 3 m/S 753 mmHg 88%
    01:00 +16°C° 0 mm 2 m/S 752 mmHg 92%
    02:00 +15°C° 0 mm 2 m/S 752 mmHg 93%
    03:00 +15°C° 0 mm 2 m/S 752 mmHg 94%
    04:00 +15°C° 0 mm 2 m/S 752 mmHg 95%
    05:00 +16°C° 0 mm 3 m/S 752 mmHg 90%
    06:00 +18°C° 0 mm 3 m/S 752 mmHg 84%
    07:00 +19°C° 0 mm 3 m/S 752 mmHg 78%
    08:00 +21°C° 0 mm 4 m/S 752 mmHg 71%
    09:00 +22°C° 0 mm 4 m/S 752 mmHg 64%
    10:00 +25°C° 0 mm 4 m/S 752 mmHg 57%
    11:00 +25°C° 0.1 mm 4 m/S 752 mmHg 56%
    12:00 +26°C° 0.1 mm 4 m/S 751 mmHg 55%
    13:00 +26°C° 0.1 mm 4 m/S 751 mmHg 54%
    14:00 +26°C° 0.3 mm 5 m/S 751 mmHg 58%
    15:00 +25°C° 0.3 mm 5 m/S 751 mmHg 61%
    16:00 +25°C° 0.3 mm 5 m/S 751 mmHg 64%
    17:00 +23°C° 0.1 mm 4 m/S 751 mmHg 70%
    18:00 +22°C° 0.1 mm 4 m/S 751 mmHg 75%
    19:00 +21°C° 0.1 mm 3 m/S 751 mmHg 81%
    20:00 +21°C° 0 mm 3 m/S 751 mmHg 83%
    21:00 +20°C° 0 mm 3 m/S 751 mmHg 84%
    22:00 +19°C° 0 mm 3 m/S 751 mmHg 86%
    23:00 +19°C° 0.1 mm 3 m/S 751 mmHg 89%

    27 Juli, Samstag

    Zeit Temperatur Niederschläge Wind Luftdruck Luftfeuchtigkeit
    00:00 +18°C° 0.1 mm 3 m/S 751 mmHg 92%
    01:00 +17°C° 0.1 mm 3 m/S 750 mmHg 95%
    02:00 +17°C° 0 mm 3 m/S 750 mmHg 95%
    03:00 +17°C° 0 mm 3 m/S 750 mmHg 96%
    04:00 +16°C° 0 mm 3 m/S 750 mmHg 97%
    05:00 +17°C° 0 mm 3 m/S 750 mmHg 93%
    06:00 +19°C° 0 mm 4 m/S 750 mmHg 89%
    07:00 +20°C° 0 mm 4 m/S 751 mmHg 85%
    08:00 +21°C° 0 mm 4 m/S 751 mmHg 77%
    09:00 +23°C° 0 mm 5 m/S 751 mmHg 70%
    10:00 +25°C° 0 mm 5 m/S 751 mmHg 63%
    11:00 +26°C° 0.2 mm 5 m/S 751 mmHg 61%
    12:00 +27°C° 0.2 mm 6 m/S 750 mmHg 58%
    13:00 +27°C° 0.2 mm 6 m/S 750 mmHg 56%
    14:00 +27°C° 0.4 mm 6 m/S 750 mmHg 56%
    15:00 +27°C° 0.4 mm 6 m/S 750 mmHg 57%
    16:00 +27°C° 0.4 mm 6 m/S 750 mmHg 58%
    17:00 +26°C° 0 mm 5 m/S 750 mmHg 63%
    18:00 +23°C° 0 mm 4 m/S 750 mmHg 68%
    19:00 +22°C° 0 mm 4 m/S 750 mmHg 72%
    20:00 +21°C° 0 mm 3 m/S 750 mmHg 78%
    21:00 +20°C° 0 mm 3 m/S 750 mmHg 84%
    22:00 +19°C° 0 mm 3 m/S 750 mmHg 90%
    23:00 +19°C° 0 mm 3 m/S 750 mmHg 90%

    28 Juli, Sonntag

    Zeit Temperatur Niederschläge Wind Luftdruck Luftfeuchtigkeit
    00:00 +19°C° 0 mm 3 m/S 750 mmHg 90%
    01:00 +19°C° 0 mm 3 m/S 750 mmHg 90%
    02:00 +19°C° 0 mm 3 m/S 750 mmHg 91%
    03:00 +19°C° 0 mm 3 m/S 750 mmHg 92%
    04:00 +18°C° 0 mm 3 m/S 750 mmHg 93%
    05:00 +20°C° 0 mm 4 m/S 750 mmHg 89%
    06:00 +21°C° 0 mm 4 m/S 750 mmHg 84%
    07:00 +22°C° 0 mm 4 m/S 750 mmHg 80%
    08:00 +23°C° 0.4 mm 5 m/S 750 mmHg 75%
    09:00 +26°C° 0.4 mm 5 m/S 750 mmHg 69%
    10:00 +27°C° 0.4 mm 6 m/S 750 mmHg 64%
    11:00 +27°C° 1 mm 6 m/S 749 mmHg 63%
    12:00 +28°C° 1 mm 6 m/S 749 mmHg 62%
    13:00 +28°C° 1 mm 6 m/S 749 mmHg 61%
    14:00 +28°C° 0.6 mm 5 m/S 748 mmHg 61%
    15:00 +28°C° 0.6 mm 5 m/S 748 mmHg 61%
    16:00 +28°C° 0.6 mm 4 m/S 748 mmHg 60%
    17:00 +27°C° 0.4 mm 4 m/S 748 mmHg 66%
    18:00 +26°C° 0.4 mm 4 m/S 748 mmHg 72%
    19:00 +24°C° 0.4 mm 3 m/S 748 mmHg 78%
    20:00 +24°C° 0.1 mm 3 m/S 748 mmHg 81%
    21:00 +22°C° 0.1 mm 3 m/S 748 mmHg 84%
    22:00 +21°C° 0.1 mm 3 m/S 748 mmHg 87%
    23:00 +21°C° 0.1 mm 3 m/S 748 mmHg 89%
    Mehr zeigen